When you browse on this site, cookies collect data to enhance your experience and personalize the content and advertising you see.
Visit our Privacy Policy to learn more. By continuing to use the site, you agree to this use of cookies and data.
  • In Hungary
  • List of Countries
  • For 7 days
  • Water Temperature
  • Satellite Maps
  • Weather Map
  • News
  • Weather Widgets
  • user-avatar
    Login

    Hourly Weather Champigny-sur-Marne

    Today, 21 March, Thursday

    Time Temperature Precipitation Wind Pressure Humidity
    00:00 +10°C° 0 mm 1 mps 770 mmHg 70%
    01:00 +9°C° 0 mm 1 mps 770 mmHg 72%
    02:00 +9°C° 0 mm 1 mps 770 mmHg 74%
    03:00 +9°C° 0 mm 1 mps 770 mmHg 76%
    04:00 +8°C° 0 mm 1 mps 770 mmHg 78%
    05:00 +8°C° 0 mm 1 mps 770 mmHg 80%
    06:00 +8°C° 0 mm 1 mps 770 mmHg 81%
    07:00 +9°C° 0 mm 1 mps 770 mmHg 76%
    08:00 +9°C° 0 mm 2 mps 770 mmHg 71%
    09:00 +12°C° 0 mm 2 mps 770 mmHg 67%
    10:00 +13°C° 0 mm 2 mps 770 mmHg 62%
    11:00 +15°C° 0 mm 2 mps 770 mmHg 57%
    12:00 +16°C° 0 mm 3 mps 770 mmHg 52%
    13:00 +16°C° 0 mm 3 mps 769 mmHg 52%
    14:00 +17°C° 0 mm 3 mps 769 mmHg 51%
    15:00 +17°C° 0 mm 3 mps 768 mmHg 50%
    16:00 +16°C° 0 mm 3 mps 768 mmHg 54%
    17:00 +14°C° 0 mm 3 mps 768 mmHg 57%
    18:00 +14°C° 0 mm 2 mps 768 mmHg 60%
    19:00 +13°C° 0 mm 2 mps 768 mmHg 62%
    20:00 +12°C° 0 mm 2 mps 768 mmHg 63%
    21:00 +12°C° 0 mm 1 mps 768 mmHg 64%
    22:00 +11°C° 0 mm 1 mps 768 mmHg 65%
    23:00 +11°C° 0 mm 1 mps 768 mmHg 66%

    Tomorrow, 22 March, Friday

    Time Temperature Precipitation Wind Pressure Humidity
    00:00 +10°C° 0 mm 1 mps 768 mmHg 66%
    01:00 +10°C° 0 mm 1 mps 768 mmHg 67%
    02:00 +9°C° 0 mm 1 mps 767 mmHg 68%
    03:00 +9°C° 0 mm 1 mps 767 mmHg 68%
    04:00 +8°C° 0 mm 1 mps 767 mmHg 69%
    05:00 +8°C° 0 mm 1 mps 767 mmHg 70%
    06:00 +7°C° 0 mm 1 mps 767 mmHg 72%
    07:00 +9°C° 0 mm 1 mps 767 mmHg 67%
    08:00 +10°C° 0 mm 1 mps 767 mmHg 63%
    09:00 +11°C° 0 mm 1 mps 767 mmHg 58%
    10:00 +13°C° 0 mm 1 mps 767 mmHg 53%
    11:00 +15°C° 0 mm 1 mps 767 mmHg 48%
    12:00 +16°C° 0 mm 1 mps 766 mmHg 43%
    13:00 +18°C° 0 mm 1 mps 766 mmHg 41%
    14:00 +18°C° 0 mm 1 mps 766 mmHg 39%
    15:00 +19°C° 0 mm 1 mps 765 mmHg 37%
    16:00 +18°C° 0 mm 1 mps 765 mmHg 40%
    17:00 +15°C° 0 mm 0 mps 765 mmHg 43%
    18:00 +14°C° 0 mm 0 mps 765 mmHg 46%
    19:00 +13°C° 0 mm 0 mps 766 mmHg 49%
    20:00 +13°C° 0 mm 1 mps 766 mmHg 51%
    21:00 +13°C° 0 mm 1 mps 766 mmHg 54%
    22:00 +12°C° 0 mm 1 mps 766 mmHg 58%
    23:00 +11°C° 0 mm 1 mps 766 mmHg 61%

    Day after tomorrow, 23 March, Saturday

    Time Temperature Precipitation Wind Pressure Humidity
    00:00 +11°C° 0 mm 1 mps 766 mmHg 65%
    01:00 +10°C° 0 mm 1 mps 766 mmHg 68%
    02:00 +10°C° 0 mm 1 mps 766 mmHg 72%
    03:00 +9°C° 0 mm 2 mps 766 mmHg 75%
    04:00 +9°C° 0 mm 1 mps 766 mmHg 78%
    05:00 +9°C° 0 mm 1 mps 766 mmHg 80%
    06:00 +8°C° 0 mm 1 mps 767 mmHg 83%
    07:00 +10°C° 0 mm 1 mps 767 mmHg 78%
    08:00 +10°C° 0 mm 2 mps 767 mmHg 73%
    09:00 +12°C° 0 mm 2 mps 767 mmHg 68%
    10:00 +14°C° 0 mm 2 mps 767 mmHg 62%
    11:00 +15°C° 0 mm 2 mps 767 mmHg 57%
    12:00 +17°C° 0 mm 2 mps 767 mmHg 51%
    13:00 +17°C° 0 mm 2 mps 766 mmHg 50%
    14:00 +17°C° 0 mm 2 mps 766 mmHg 49%
    15:00 +18°C° 0 mm 3 mps 766 mmHg 49%
    16:00 +17°C° 0 mm 3 mps 766 mmHg 54%
    17:00 +16°C° 0 mm 3 mps 766 mmHg 59%
    18:00 +14°C° 0 mm 3 mps 766 mmHg 64%
    19:00 +14°C° 0 mm 3 mps 766 mmHg 69%
    20:00 +13°C° 0 mm 3 mps 766 mmHg 75%
    21:00 +12°C° 0 mm 3 mps 767 mmHg 80%
    22:00 +12°C° 0 mm 3 mps 767 mmHg 82%
    23:00 +11°C° 0 mm 3 mps 766 mmHg 84%

    24 March, Sunday

    Time Temperature Precipitation Wind Pressure Humidity
    00:00 +11°C° 0 mm 3 mps 766 mmHg 85%
    01:00 +10°C° 0 mm 3 mps 766 mmHg 86%
    02:00 +10°C° 0 mm 3 mps 766 mmHg 87%
    03:00 +9°C° 0 mm 3 mps 766 mmHg 88%
    04:00 +9°C° 0 mm 3 mps 766 mmHg 86%
    05:00 +9°C° 0 mm 3 mps 766 mmHg 85%
    06:00 +9°C° 0 mm 3 mps 766 mmHg 83%
    07:00 +9°C° 0 mm 3 mps 767 mmHg 80%
    08:00 +10°C° 0 mm 3 mps 767 mmHg 77%
    09:00 +10°C° 0 mm 3 mps 767 mmHg 74%
    10:00 +11°C° 0 mm 3 mps 767 mmHg 69%
    11:00 +13°C° 0 mm 4 mps 767 mmHg 64%
    12:00 +14°C° 0 mm 4 mps 767 mmHg 59%
    13:00 +14°C° 0 mm 4 mps 767 mmHg 57%
    14:00 +14°C° 0 mm 5 mps 767 mmHg 54%
    15:00 +14°C° 0 mm 5 mps 767 mmHg 52%
    16:00 +13°C° 0 mm 5 mps 767 mmHg 52%
    17:00 +12°C° 0 mm 5 mps 767 mmHg 51%
    18:00 +10°C° 0 mm 5 mps 768 mmHg 51%
    19:00 +9°C° 0 mm 5 mps 768 mmHg 53%
    20:00 +8°C° 0 mm 5 mps 769 mmHg 56%
    21:00 +7°C° 0 mm 5 mps 769 mmHg 58%
    22:00 +7°C° 0 mm 5 mps 769 mmHg 60%
    23:00 +6°C° 0 mm 4 mps 769 mmHg 61%

    25 March, Monday

    Time Temperature Precipitation Wind Pressure Humidity
    00:00 +5°C° 0 mm 4 mps 770 mmHg 63%
    01:00 +5°C° 0 mm 4 mps 770 mmHg 64%
    02:00 +5°C° 0 mm 4 mps 769 mmHg 65%
    03:00 +4°C° 0 mm 4 mps 769 mmHg 65%
    04:00 +4°C° 0 mm 4 mps 770 mmHg 66%
    05:00 +4°C° 0 mm 4 mps 770 mmHg 66%
    06:00 +3°C° 0 mm 3 mps 770 mmHg 67%
    07:00 +5°C° 0 mm 4 mps 770 mmHg 62%
    08:00 +6°C° 0 mm 4 mps 770 mmHg 58%
    09:00 +7°C° 0 mm 4 mps 771 mmHg 53%
    10:00 +8°C° 0 mm 4 mps 770 mmHg 52%
    11:00 +11°C° 0 mm 4 mps 770 mmHg 50%
    12:00 +12°C° 0 mm 4 mps 770 mmHg 48%
    13:00 +12°C° 0 mm 4 mps 770 mmHg 49%
    14:00 +12°C° 0 mm 5 mps 770 mmHg 50%
    15:00 +12°C° 0 mm 5 mps 769 mmHg 51%
    16:00 +12°C° 0 mm 4 mps 769 mmHg 54%
    17:00 +11°C° 0 mm 4 mps 769 mmHg 58%
    18:00 +10°C° 0 mm 4 mps 769 mmHg 61%
    19:00 +10°C° 0 mm 4 mps 770 mmHg 64%
    20:00 +8°C° 0 mm 4 mps 770 mmHg 67%
    21:00 +7°C° 0 mm 4 mps 770 mmHg 70%
    22:00 +7°C° 0 mm 4 mps 770 mmHg 72%
    23:00 +6°C° 0 mm 4 mps 770 mmHg 74%

    26 March, Tuesday

    Time Temperature Precipitation Wind Pressure Humidity
    00:00 +6°C° 0 mm 4 mps 770 mmHg 76%
    01:00 +5°C° 0 mm 3 mps 770 mmHg 78%
    02:00 +5°C° 0 mm 3 mps 770 mmHg 80%
    03:00 +4°C° 0 mm 3 mps 770 mmHg 82%
    04:00 +4°C° 0 mm 3 mps 770 mmHg 83%
    05:00 +4°C° 0 mm 3 mps 770 mmHg 84%
    06:00 +3°C° 0 mm 3 mps 770 mmHg 85%
    07:00 +5°C° 0 mm 3 mps 771 mmHg 78%
    08:00 +7°C° 0 mm 3 mps 771 mmHg 71%
    09:00 +9°C° 0 mm 3 mps 771 mmHg 64%
    10:00 +10°C° 0 mm 4 mps 771 mmHg 60%
    11:00 +11°C° 0 mm 4 mps 771 mmHg 56%
    12:00 +12°C° 0 mm 4 mps 770 mmHg 51%
    13:00 +13°C° 0 mm 4 mps 770 mmHg 51%
    14:00 +13°C° 0 mm 4 mps 770 mmHg 51%
    15:00 +14°C° 0 mm 5 mps 769 mmHg 50%
    16:00 +13°C° 0 mm 4 mps 769 mmHg 55%
    17:00 +12°C° 0 mm 4 mps 769 mmHg 59%
    18:00 +11°C° 0 mm 4 mps 769 mmHg 64%
    19:00 +10°C° 0 mm 4 mps 770 mmHg 67%
    20:00 +9°C° 0 mm 3 mps 770 mmHg 69%
    21:00 +9°C° 0 mm 3 mps 770 mmHg 72%
    22:00 +8°C° 0 mm 3 mps 770 mmHg 74%
    23:00 +8°C° 0 mm 3 mps 770 mmHg 75%
    Show more